This is the latest recevied weather packets stored in our database for station/object WB8SKP-WX. If no packets are shown the sender has not sent any weather packets the latest 1 day(s).
| Time | Temp. | Humidity | Pressure | Rain* | Wind** | Luminosity | Snow |
|---|---|---|---|---|---|---|---|
| 1778090517 | 13.33° C | 83% | 995.9 hPa | 0 mm | - | - | - |
| 1778089287 | 12.78° C | 88% | 995.6 hPa | 0 mm | - | - | - |
| 1778086887 | 12.22° C | 93% | 994.9 hPa | 0 mm | - | - | - |
| 1778085657 | 11.67° C | 90% | 995.6 hPa | 0 mm | - | - | - |
| 1778084457 | 11.67° C | 92% | 995.8 hPa | 0 mm | - | - | - |
| 1778083257 | 11.11° C | 95% | 996 hPa | 0 mm | - | - | - |
| 1778082027 | 10.56° C | 97% | 996.1 hPa | 0 mm | - | - | - |
| 1778079597 | 10° C | 97% | 995.3 hPa | 0 mm | - | - | - |
| 1778078397 | 10° C | 97% | 995 hPa | 0 mm | - | - | - |
| 1778077197 | 10° C | 96% | 995 hPa | 0 mm | - | - | - |
| 1778075967 | 10° C | 98% | 994.4 hPa | 0 mm | - | - | - |
| 1778074767 | 9.44° C | 98% | 994.2 hPa | 0 mm | - | - | - |
| 1778059016 | 10° C | 99% | 991.1 hPa | 0 mm | - | - | - |
| 1778057786 | 10° C | 99% | 991.2 hPa | 0 mm | - | - | - |
| 1778056586 | 10° C | 99% | 991.4 hPa | 0 mm | - | - | - |
| 1778054186 | 10.56° C | 99% | 991.4 hPa | 0 mm | - | - | - |
| 1778052956 | 10.56° C | 99% | 990.8 hPa | 0 mm | - | - | - |
| 1778051726 | 11.11° C | 99% | 991 hPa | 0 mm | - | - | - |
| 1778050526 | 11.11° C | 99% | 990.5 hPa | 0 mm | - | - | - |
| 1778048096 | 11.11° C | 99% | 989.9 hPa | 0 mm | - | - | - |
| 1778046896 | 11.11° C | 99% | 990.1 hPa | 0 mm | - | - | - |
| 1778045696 | 11.11° C | 99% | 989.9 hPa | 0 mm | - | - | - |
| 1778044496 | 11.67° C | 99% | 989.9 hPa | 0 mm | - | - | - |
| 1778043266 | 12.22° C | 99% | 989.9 hPa | 0 mm | - | - | - |
| 1778042066 | 13.33° C | 99% | 989.7 hPa | 0 mm | - | - | - |
* Rain latest hour (hover to see other rain measurements)
** Current wind speed in m/s (hover to see current wind gust speed)